Torna al catalogo

SL-12 R/B(2)

AttivoGEO
NORAD 18578·ROCKET BODY·🇷🇺 Russia

Lanciato Nov 26, 1987 da Baikonur Cosmodrome

Loading…

TLE

AggiornatoSource: Space-Track

Epoca: Sep 14, 2026, 14:24 UTC

1 18578U 87096D   26257.60058111 -.00000327  00000-0  00000+0 0  9995
2 18578  10.6962 325.6060 0023531 251.1751 121.5865  1.00563671138934

Traccia SL-12 R/B(2) in tempo reale con AllMySat

Download on the App Store